Regional Weather Roundup
Issued by NWS Mt. Holly, NJ

Current Version | Previous Version | Text Only | Print | Product List | Glossary Off
Versions: 1 2 3 4 5 6 7 8 9 10 11 12 13 14 15 16 17 18 19 20 21 22 23 24 25 26 27 28 29 30 31 32 33 34 35 36 37 38 39 40 41 42 43 44 45 46 47 48 49 50

000
ASUS41 KPHI 132312
RWRPHI

REGIONAL WEATHER ROUNDUP
NATIONAL WEATHER SERVICE MOUNT HOLLY NJ
600 PM EST SAT FEB 13 2016

NOTE:  "FAIR" INDICATES FEW OR NO CLOUDS BELOW 12,000 FEET WITH NO
SIGNIFICANT WEATHER AND/OR OBSTRUCTIONS TO VISIBILITY.

 * = STATION DOES NOT REPORT PRECIPITATION (E.G. RAIN, SNOW, ETC.)
        OR FOG.

NJZ015>026-140000-
SOUTHERN NEW JERSEY

CITY           SKY/WX    TMP DP  RH WIND       PRES   REMARKS
POMONA         PTCLDY    16 -11  29 NW22G38   30.26R WCI  -2
WILDWOOD*        N/A    N/A N/A N/A MISG        N/A
MILLVILLE      MOCLDY    16  -5  39 NW18G29   30.30R WCI   0
WRIGHTSTOWN    CLEAR     13 -13  30 NW20G31   30.23R WCI  -4
MOUNT HOLLY    PTCLDY    14 -12  30 NW15G30   30.29R WCI  -1
TRENTON        CLOUDY    13 -12  32 NW18G28   30.25R WCI  -4

$$
NJZ001>014-140000-
NORTHERN NEW JERSEY

CITY           SKY/WX    TMP DP  RH WIND       PRES   REMARKS
SUSSEX         CLEAR      5 -16  37 MISG      30.22R
ANDOVER*         N/A      6 -16  35 VRB6G20   30.21R WCI  -4
MORRISTOWN     PTCLDY     9 -13  37 NW12G21   30.25R WCI  -6
NEWARK         PTCLDY    11 -16  28 NW26G39   30.25R WCI -10
TETERBORO      PTCLDY    10 -17  28 NW20G32   30.25R WCI  -9
CALDWELL       PTCLDY     9 -17  30 NW17G24   30.25R WCI  -9
SOMERVILLE     MOCLDY    11 -11  36 NW15G23   30.24R WCI  -5
ALLAIRE*       PTCLDY    14 N/A N/A NW17G26   30.21R WCI  -3
TOMS RIVER*    PTCLDY    14 -11  31 NW18G31   30.24R WCI  -3

$$
PAZ043-044-047-054-055-060>062-066>071-140000-
EASTERN PENNSYLVANIA

CITY           SKY/WX    TMP DP  RH WIND       PRES   REMARKS
PHILADELPHIA   PTCLDY    16 -13  26 NW25G31   30.31R WCI  -3
NORTH PHILA    MOCLDY    14  -9  35 NW16G29   30.29R WCI  -2
BLUE BELL*       N/A     12  -8  40 NW13G18   30.27R WCI  -3
DOYLESTOWN     PTCLDY    10 -12  36 W25G35    30.24R WCI -11
QUAKERTOWN*    CLEAR     10  -8  44 NW9G21    30.25R WCI  -2
PERKASIE*      MOCLDY    10  -9  40 NW18G26   30.24R WCI  -8
POTTSTOWN      PTCLDY    11  -9  40 NW16G30   30.28R WCI  -6
LANCASTER      CLEAR     11  -5  48 NW16      30.29R WCI  -6
COATESVILLE    CLEAR     10  -6  48 NW17G25   30.26R WCI  -7
READING        PTCLDY    11  -7  44 NW16      30.28R WCI  -6
ALLENTOWN      CLOUDY    11  -8  42 NW15G23   30.26R WCI  -5
MOUNT POCONO   CLOUDY    -1 -14  53 NW13G26   30.06R WCI -19
HAZLETON       CLOUDY     5  -9  51 W14G24    30.16R WCI -12
LEHIGHTON      CLOUDY    12  -9  37 W5        30.26R WCI   4
WILKES BARRE   CLOUDY     3 -11  52 NW15G25   30.22R WCI -16

$$
DEZALL-MDZ008-012-015-019-020-140000-
DELAWARE AND EASTERN MARYLAND

CITY           SKY/WX    TMP DP  RH WIND       PRES   REMARKS
WILMINGTON     PTCLDY    14  -3  47 NW13G24   30.32R WCI   0
DOVER          PTCLDY    17  -2  42 NW24G33   30.29R WCI  -1
GEORGETOWN     CLEAR     19  -3  38 NW13G23   30.31R WCI   6
EASTON         MOCLDY    21   0  39 NW23G40   30.37  WCI   5
PATUXENT       PTCLDY    20  -6  31 NW17      30.35R WCI   5
OCEAN CITY     PTCLDY    19  -2  39 NW15G22   30.30R WCI   5
WALLOPS ISLAND FAIR      21  -2  36 NW21G29   30.31R WCI   5
SALISBURY      MOCLDY    19  -3  38 NW13G23   30.31R WCI   6

$$
PAZ001-021-NYZ056-072-MDZ011-DCZ001-140000-
OTHER NEARBY LOCATIONS

CITY           SKY/WX    TMP DP  RH WIND       PRES   REMARKS
HARRISBURG     MOCLDY    14  -2  49 NW23G29   30.31R WCI  -5
STATE COLLEGE  LGT SNOW   7   0  72 NW13G20   30.25R WCI  -9
WILLIAMSPORT   MOCLDY     9  -9  44 W17G29    30.29R WCI  -9
BINGHAMTON     CLOUDY    -5 -18  53 NW16G26   30.13R WCI -27
NEW YORK CITY  PTCLDY    10 -16  29 NW17G36   30.24R WCI  -8
BALTIMORE      PTCLDY    16  -5  39 W16G26    30.35R WCI   1
WASHINGTON DC  FAIR      19  -8  30 NW17G31   30.39R WCI   4

$$



USA.gov is the U.S. government's official web portal to all federal, state and local government web resources and services.